Location: Home
(42.5358°N, 72.7383°W)
Time: 14:52:51
(UTC-05:00)

Explorer 11/Cluster Stage 4 - Pass Details

Date: 16 December 2025
Orbit: 463 x 1179 km, 28.8° (Epoch: 21 January)

Event Time Altitude Azimuth Distance (km) Brightness Sun altitude
Rises 16:46:22 0° 222° (SW) 4,035 11.8 -5.2°
Reaches altitude 10° 16:50:04 10° 206° (SSW) 3,090 10.5 -5.8°
Maximum altitude 16:55:21 20° 163° (SSE) 2,393 9.2 -6.7°
Drops below altitude 10° 17:00:29 10° 120° (ESE) 2,975 9.2 -7.6°
Enters shadow 17:03:53 - 105° (ESE) 3,823 9.6 -8.1°
